This is the latest recevied weather packets stored in our database for station/object K4KMJ. If no packets are shown the sender has not sent any weather packets the latest 10 day(s).
| Time | Temp. | Humidity | Pressure | Rain* | Wind** | Luminosity | Snow |
|---|---|---|---|---|---|---|---|
| 1777424184 | 21.67° C | 88% | 1019.9 hPa | 0 mm | - | 0 W/m² | - |
| 1777423882 | 22.22° C | 88% | 1019.7 hPa | 0 mm | - | 0 W/m² | - |
| 1777423578 | 22.22° C | 87% | 1019.7 hPa | 0 mm | - | 0 W/m² | - |
| 1777423274 | 22.22° C | 87% | 1019.7 hPa | 0 mm | - | 0 W/m² | - |
| 1777422969 | 22.22° C | 87% | 1019.5 hPa | 0 mm | - | 0 W/m² | - |
| 1777422664 | 22.78° C | 86% | 1019.9 hPa | 0 mm | - | 0 W/m² | - |
| 1777422359 | 22.78° C | 86% | 1019.8 hPa | 0 mm | - | 0 W/m² | - |
| 1777422054 | 22.78° C | 85% | 1019.8 hPa | 0 mm | - | 0 W/m² | - |
| 1777421749 | 22.78° C | 85% | 1020.1 hPa | 0 mm | - | 0 W/m² | - |
| 1777421445 | 22.78° C | 84% | 1020 hPa | 0 mm | - | 0 W/m² | - |
| 1777421141 | 23.33° C | 84% | 1020 hPa | 0 mm | - | 1 W/m² | - |
| 1777420838 | 23.33° C | 84% | 1020.1 hPa | 0 mm | - | 2 W/m² | - |
| 1777420534 | 23.33° C | 83% | 1020.3 hPa | 0 mm | - | 4 W/m² | - |
| 1777420230 | 23.33° C | 83% | 1020.4 hPa | 0 mm | - | 6 W/m² | - |
| 1777419926 | 23.89° C | 82% | 1020.3 hPa | 0 mm | - | 9 W/m² | - |
| 1777419623 | 23.89° C | 82% | 1020.2 hPa | 0 mm | - | 12 W/m² | - |
| 1777419322 | 23.89° C | 82% | 1020.3 hPa | 0 mm | - | 16 W/m² | - |
| 1777419020 | 23.89° C | 81% | 1020.4 hPa | 0 mm | - | 19 W/m² | - |
| 1777418714 | 23.89° C | 81% | 1020.3 hPa | 0 mm | - | 21 W/m² | - |
| 1777418411 | 24.44° C | 80% | 1020.2 hPa | 0 mm | - | 25 W/m² | - |
| 1777418107 | 24.44° C | 80% | 1020.3 hPa | 0 mm | - | 25 W/m² | - |
| 1777417803 | 24.44° C | 79% | 1020.2 hPa | 0 mm | - | 26 W/m² | - |
| 1777417498 | 25° C | 79% | 1020.3 hPa | 0 mm | - | 70 W/m² | - |
| 1777417195 | 25° C | 79% | 1020.2 hPa | 0 mm | - | 83 W/m² | - |
| 1777416891 | 25° C | 78% | 1020.2 hPa | 0 mm | - | 95 W/m² | - |
* Rain latest hour (hover to see other rain measurements)
** Current wind speed in m/s (hover to see current wind gust speed)